This is the latest recevied weather packets stored in our database for station/object KC5AV. If no packets are shown the sender has not sent any weather packets the latest 10 day(s).
| Time | Temp. | Humidity | Pressure | Rain* | Wind** | Luminosity | Snow |
|---|---|---|---|---|---|---|---|
| 1777725873 | 10.56° C | 98% | 1021.1 hPa | 0 mm | - | 45 W/m² | - |
| 1777725571 | 10° C | 98% | 1021.1 hPa | 0 mm | - | 42 W/m² | - |
| 1777725268 | 10° C | 98% | 1021 hPa | 0 mm | - | 40 W/m² | - |
| 1777724965 | 10° C | 98% | 1020.9 hPa | 0 mm | - | 38 W/m² | - |
| 1777724360 | 9.44° C | 98% | 1020.6 hPa | 0 mm | - | 32 W/m² | - |
| 1777724056 | 9.44° C | 98% | 1020.4 hPa | 0 mm | - | 30 W/m² | - |
| 1777723754 | 9.44° C | 97% | 1020.2 hPa | 0 mm | - | 27 W/m² | - |
| 1777723450 | 9.44° C | 97% | 1019.8 hPa | 0 mm | - | 24 W/m² | - |
| 1777723095 | 8.89° C | 97% | 1019.7 hPa | 0 mm | - | 14 W/m² | - |
| 1777722791 | 8.89° C | 97% | 1019.7 hPa | 0 mm | - | 14 W/m² | - |
| 1777722488 | 8.89° C | 97% | 1019.8 hPa | 0 mm | - | 13 W/m² | - |
| 1777721882 | 8.89° C | 97% | 1019.6 hPa | 0 mm | - | 5 W/m² | - |
| 1777721579 | 8.89° C | 97% | 1019.7 hPa | 0 mm | - | 4 W/m² | - |
| 1777721277 | 8.89° C | 97% | 1019.5 hPa | 0 mm | - | 2 W/m² | - |
| 1777720975 | 9.44° C | 96% | 1019.4 hPa | 0 mm | - | 1 W/m² | - |
| 1777720671 | 9.44° C | 96% | 1019.4 hPa | 0 mm | - | 0 W/m² | - |
| 1777720230 | 9.44° C | 96% | 1019.3 hPa | 0 mm | - | 0 W/m² | - |
| 1777719927 | 9.44° C | 96% | 1019.3 hPa | 0 mm | - | 0 W/m² | - |
| 1777719625 | 10° C | 96% | 1019.2 hPa | 0 mm | - | 0 W/m² | - |
| 1777719322 | 10° C | 96% | 1019.4 hPa | 0 mm | - | 0 W/m² | - |
| 1777719019 | 10° C | 96% | 1019.2 hPa | 0 mm | - | 0 W/m² | - |
| 1777718716 | 10° C | 96% | 1019.2 hPa | 0 mm | - | 0 W/m² | - |
| 1777718414 | 10° C | 96% | 1019.1 hPa | 0 mm | - | 0 W/m² | - |
| 1777718111 | 10° C | 96% | 1019.1 hPa | 0 mm | - | 0 W/m² | - |
| 1777717809 | 10.56° C | 96% | 1019.1 hPa | 0 mm | - | 0 W/m² | - |
* Rain latest hour (hover to see other rain measurements)
** Current wind speed in m/s (hover to see current wind gust speed)